User: anonymous
Location: Bangkok
(13.7500°N, 100.5170°E)
Time: 09:57:56
(UTC+07:00)
Language:

Cosmos 1802 Rocket - Orbit

View from above orbital plane
View from above orbital plane
View from above satellite
View from above satellite

Ground track
Ground track

The orbit data is extracted from the following two-line orbital elements,

1 17160U 86093B   14209.41108806  .00000062  00000-0  49476-4 0  1494
2 17160 082.9292 126.7623 0038473 206.0555 291.4909 13.74511045387962
Epoch (UTC): 28 July 2014 09:51:58
Eccentricity: 0.0038473
inclination: 82.9292°
perigee height: 955 km
apogee height: 1012 km
right ascension of ascending node: 126.7623°
argument of perigee: 206.0555°
revolutions per day: 13.74511045
mean anomaly at epoch: 291.4909°
orbit number at epoch: 38796

The dashed part of the orbit path shows where the satellite is in the earth's shadow,  

DLR